Regional Weather Roundup
Issued by NWS Sterling, VA

Home | Current Version | Previous Version | Text Only | Print | Product List | Glossary On
Versions: 1 2 3 4 5 6 7 8 9 10 11 12 13 14 15 16 17 18 19 20 21 22 23 24 25 26 27
000
ASUS41 KLWX 201111
RWRLWX

REGIONAL WEATHER ROUNDUP
NATIONAL WEATHER SERVICE BALTIMORE MD/WASHINGTON DC
700 AM EDT SUN AUG 20 2017

Note: "FAIR" indicates few or no clouds below 12,000 feet
with no significant weather and/or obstructions to visibility.
 TC=TEMPERATURE CELSIUS

 * =Non NWS site. Station does not report precipitation (e.g. rain,
    snow, etc.), thunder, or fog.

DCZ001-MDZ009-015-VAZ040>042-051-053>054-201200-
WASHINGTON METRO

CITY           SKY/WX    TMP DP  RH WIND       PRES   REMARKS
WASHINGTON NAT PTCLDY    71  62  73 N9        30.08R
DULLES         PTCLDY    68  63  84 NW5       30.09R
ANDREWS AFB    CLEAR     65  61  86 N3        30.07R
FT BELVOIR     CLEAR     65  64  95 CALM      30.08R
QUANTICO       CLEAR     70  67  90 CALM      30.09R
COLLEGE PARK*  CLEAR     64  61  90 CALM      30.07R
LEESBURG*      CLEAR     66  64  94 CALM      30.11R
MANASSAS*      PTCLDY    67  63  87 N6        30.09R
GAITHERSBURG*  CLEAR     63  60  90 CALM      30.10R

$$

MDZ006>007-011-014-201200-
BALTIMORE METRO

CITY           SKY/WX    TMP DP  RH WIND       PRES   REMARKS
BWI AIRPORT    PTCLDY    66  62  87 NW7       30.07R
MD SCIENCE CTR   N/A     71  62  73 MISG      30.08R
MARTIN STATE   CLEAR     66  64  94 NW5       30.08R
ANNAPOLIS      PTCLDY    74  66  76 N8        30.06R
FORT MEADE*    CLEAR     63  61  94 CALM      30.09R

$$

MDZ012-015-019>023-201200-
MARYLAND EASTERN SHORE

CITY           SKY/WX    TMP DP  RH WIND       PRES   REMARKS
OCEAN CITY     CLEAR     70  67  90 NW7       30.05R
SALISBURY      CLEAR     70  68  93 CALM      30.05R
BAY BRIDGE AP* CLEAR     72  66  83 N3        30.06R
CAMBRIDGE*     CLEAR     68  68 100 CALM      30.06R

$$

MDZ017>025-201200-
SOUTHERN MARYLAND

CITY           SKY/WX    TMP DP  RH WIND       PRES   REMARKS
PATUXENT RIVER CLEAR     72  67  84 NW8       30.06R
ST INIGOES     CLEAR     73  67  81 VRB3      30.05R
LEONARDTOWN*   CLEAR     68  63  83 CALM      30.08R

$$

MDZ003>005-201200-
NORTH CENTRAL MARYLAND

CITY           SKY/WX    TMP DP  RH WIND       PRES   REMARKS
FREDERICK*     CLEAR     63  63 100 CALM      30.12R
HAGERSTOWN APT CLEAR     63  60  90 S3        30.11R
WESTMINSTER*   CLEAR     63  63 100 CALM      30.10R

$$

MDZ501>502-201200-
WESTERN MARYLAND

CITY           SKY/WX    TMP DP  RH WIND       PRES   REMARKS
OAKLAND*         N/A     59  55  88 CALM      30.16R
CUMBERLAND*    CLOUDY    61  61 100 CALM      30.16R VSB 1/2

$$

VAZ025>031-201200-
SHENANDOAH VALLEY

CITY           SKY/WX    TMP DP  RH WIND       PRES   REMARKS
WINCHESTER*    CLEAR     61  59  94 CALM      30.11R
FRONT ROYAL*   CLOUDY    63  63 100 CALM      30.11R VSB<1/4
LURAY*         FOG       63  63 100 CALM      30.12R VSB<1/4
NEW MARKET*    MOCLDY    61  60  97 CALM      30.11R VSB 1/4
STAUNTON*      CLEAR     60  59  97 CALM      30.14R FOG
WAYNESBORO*    PTCLDY    61  61 100 SW3       30.13R

$$

WVZ021-048>050-054>055-201200-
EASTERN WEST VIRGINIA PANHANDLE

CITY           SKY/WX    TMP DP  RH WIND       PRES   REMARKS
MARTINSBURG    PTCLDY    59  58  96 S3        30.11R FOG
PETERSBURG*    CLEAR     64  63  97 CALM      30.14R

$$

VAZ036>039-050-201200-
CENTRAL FOOTHILLS

CITY           SKY/WX    TMP DP  RH WIND       PRES   REMARKS
CHARLOTTESVILL CLEAR     67  66  97 CALM      30.10R
CULPEPER*      PTCLDY    64  64 100 CALM      30.10R
ORANGE*        CLEAR     63  63 100 CALM      30.10R
GORDONSVILLE*  CLEAR     64  64 100 CALM      30.09R
WARRENTON*     FOG       63  60  91 CALM      30.09R VSB 1/4

$$

VAZ055>057-201200-
NORTH AND CENTRAL PIEDMONT

CITY           SKY/WX    TMP DP  RH WIND       PRES   REMARKS
FREDERICKSBRG* PTCLDY    67  67 100 CALM      30.08R
STAFFORD*      PTCLDY    62  62 100 CALM      30.12R

$$

NCZ024-NYZ072-PAZ021-071-VAZ022-071-201200-
OTHER REGIONAL OBSERVATIONS

CITY           SKY/WX    TMP DP  RH WIND       PRES   REMARKS
NEW YORK CITY  CLEAR     70  61  73 VRB5      30.04R
PHILADELPHIA   PTCLDY    69  60  73 NW7       30.05R
PITTSBURGH     FOG       59  59 100 CALM      30.12R VSB 1/16
ROANOKE        CLEAR     67  64  90 CALM      30.13R
RICHMOND       PTCLDY    71  70  96 N7        30.06R
RALEIGH        PTCLDY    71  70  96 CALM      30.06R

$$

ANZ530>537-201200-
MARINE OBSERVATIONS

STATION/POSITION TIME  TEMP    WIND        PRES
                       AIR SEA DIR/SP/G
                 (UTC) (F)     (DEG/KT/KT) (MB)
THOMAS PT LIGHT  1100   73 80  320/  6/  7   N/A
BALT KEY BRIDGE  1048   72     320/ 11/ 12 1017.9R
COVE POINT       1048   76     360/ 12/ 16 1018.4R
LEWISETTA        1048   78 83   10/  8/ 13 1017.5R
SOLOMONS ISLAND  1048   73 82  340/  7/  9   N/A
PINEY POINT      1036           20/ 10/ 12   N/A

$$





USA.gov is the U.S. government's official web portal to all federal, state and local government web resources and services.